Flag for U.S.A. Weather past 2 weeks in Lewiston, Idaho, U.S.A.

Now
59 °F

Sunny.


Feels Like: 57 °F
Forecast: 43 / 63 °F
Wind: 9 mph from North

Location: Lewiston-Nez Perce County Airport


UV Index: 3 (Moderate)

Visibility: 10 mi


Pressure: 30.28 "Hg

Humidity: 31%

Dew point: 28 °F

Location of LewistonLocation

Historic Weather in Lewiston

°F

Lewiston temperature yesterday

Maximum temperature yesterday: 69 °F (at 2:56 PM)
Minimum temperature yesterday: 36 °F (at 3:56 AM)
Average temperature yesterday: 52 °F

Past Weeks' High & Low Weather Summary

 TemperatureHumidityPressure
High74 °F (Apr 8, 3:56 PM)86% (Apr 17, 7:56 PM)30.35 "Hg (Apr 17, 7:56 PM)
Low35 °F (Apr 14, 3:56 AM)14% (Apr 13, 4:56 PM)29.79 "Hg (Apr 17, 5:56 PM)
Average53 °F45%30.05 "Hg
* Reported Apr 5 10:56 AM — Apr 20 10:56 AM, Lewiston, Weather by CustomWeather, © 2014

Note: Actual official high and low records may vary slightly from our data, if they occured in-between our weather recording intervals... More about our weather records

Advertising

Historic Weather Conditions — Data for Previous 24 hours

 ConditionsComfort  
Time TempWeatherWind HumidityBarometerVisibility
10:56 AM
Apr 20
57 °FSunny.6 mph33%30.30 "Hg10 mi
9:56 AM56 °FSunny.7 mph36%30.30 "Hg10 mi
8:56 AM52 °FSunny.3 mph40%30.29 "Hg10 mi
7:56 AM50 °FSunny.3 mph41%30.29 "Hg10 mi
6:56 AM45 °FSunny.6 mph53%30.28 "Hg10 mi
5:56 AM43 °FClear.5 mph51%30.26 "Hg10 mi
4:56 AM48 °FClear.5 mph43%30.24 "Hg10 mi
3:56 AM47 °FClear.7 mph46%30.23 "Hg10 mi
2:56 AM47 °FClear.7 mph46%30.21 "Hg10 mi
1:56 AM50 °FPassing clouds.10 mph44%30.18 "Hg10 mi
12:56 AM51 °FLight rain. Passing clouds.14 mph42%30.14 "Hg10 mi
11:56 PM
Apr 19
53 °FClear.20 mph38%30.12 "Hg10 mi
10:56 PM53 °FPassing clouds.12 mph41%30.10 "Hg10 mi
9:56 PM55 °FPassing clouds.15 mph40%30.06 "Hg10 mi
8:56 PM57 °FPassing clouds.14 mph34%30.03 "Hg10 mi
7:56 PM56 °FOvercast.18 mph37%30.00 "Hg10 mi
6:56 PM59 °FOvercast.33 mph33%29.94 "Hg10 mi
5:56 PM63 °FOvercast.23 mph25%29.90 "Hg10 mi
4:56 PM66 °FPartly sunny.16 mph15%29.85 "Hg10 mi
3:56 PM68 °FPassing clouds.15 mph17%29.84 "Hg10 mi
2:56 PM69 °FSunny.9 mph23%29.83 "Hg10 mi
1:56 PM67 °FPassing clouds.9 mph25%29.82 "Hg10 mi
12:56 PM63 °FSunny.7 mph27%29.83 "Hg10 mi
Weather by CustomWeather, © 2014

See weather overview